FW4741 Weather Reports


Display with metric or nautical units.
time (UTC)temp
F
wind
direction
speed
MPH
gust
MPH
rain 1hr
in
rain 24hr
in
rain mn
in
humidity
%
barometer
mb
20260903212603 74 77 2.0 6.0 0.00 0.00 0.00 65 1021.5
20260903212104 75 77 2.0 6.0 0.00 0.00 0.00 62 1021.6
20260903211604 75 77 2.0 6.0 0.00 0.00 0.00 63 1021.7
20260903211103 76 77 2.0 6.0 0.00 0.00 0.00 62 1021.8
20260903210604 76 77 2.0 6.0 0.00 0.00 0.00 61 1021.8
20260903210104 77 77 2.0 6.0 0.00 0.00 0.00 59 1021.6
20260903205604 78 77 2.0 6.0 0.00 0.00 0.00 56 1021.6
20260903204604 78 77 2.0 6.0 0.00 0.00 0.00 54 1022.1
20260903204104 78 77 2.0 6.0 0.00 0.00 0.00 54 1022.1
20260903203104 77 77 2.0 6.0 0.00 0.00 0.00 57 1022.1
20260903202603 77 77 2.0 6.0 0.00 0.00 0.00 57 1022.1
20260903202104 77 77 2.0 6.0 0.00 0.00 0.00 57 1022.2
20260903201604 77 77 2.0 6.0 0.00 0.00 0.00 57 1022.2
20260903201104 77 77 2.0 6.0 0.00 0.00 0.00 57 1022.3
20260903200104 77 77 2.0 6.0 0.00 0.00 0.00 57 1022.4
20260903195604 76 77 2.0 6.0 0.00 0.00 0.00 57 1022.5
20260903195104 75 77 2.0 6.0 0.00 0.00 0.00 59 1022.6
20260903194604 75 77 2.0 6.0 0.00 0.00 0.00 60 1022.6
20260903194104 75 77 2.0 6.0 0.00 0.00 0.00 59 1022.7
20260903193604 74 77 2.0 6.0 0.00 0.00 0.00 59 1022.7
20260903192605 74 77 2.0 6.0 0.00 0.00 0.00 60 1022.8
20260903192104 74 77 2.0 6.0 0.00 0.00 0.00 61 1022.9
20260903191604 74 77 2.0 6.0 0.00 0.00 0.00 63 1023.0
20260903191104 74 77 2.0 6.0 0.00 0.00 0.00 60 1023.0
20260903190603 74 77 2.0 6.0 0.00 0.00 0.00 62 1023.1
20260903190104 74 77 2.0 6.0 0.00 0.00 0.00 63 1023.2
20260903185104 73 77 2.0 6.0 0.00 0.00 0.00 64 1023.3
20260903184604 73 77 2.0 6.0 0.00 0.00 0.00 64 1023.3
20260903183603 73 77 2.0 6.0 0.00 0.00 0.00 65 1023.4
20260903182604 73 77 2.0 6.0 0.00 0.00 0.00 64 1023.5
20260903182103 73 77 2.0 6.0 0.00 0.00 0.00 65 1023.6
20260903181604 73 77 2.0 6.0 0.00 0.00 0.00 65 1023.6
20260903181104 73 77 2.0 6.0 0.00 0.00 0.00 65 1023.7
20260903180104 73 77 2.0 6.0 0.00 0.00 0.00 65 1023.8
20260903175604 73 77 2.0 6.0 0.00 0.00 0.00 64 1023.8
20260903175103 74 77 2.0 6.0 0.00 0.00 0.00 63 1023.9
20260903174604 74 77 2.0 6.0 0.00 0.00 0.00 60 1023.9
20260903173103 75 77 2.0 6.0 0.00 0.00 0.00 58 1023.9
20260903172603 75 77 2.0 6.0 0.00 0.00 0.00 60 1023.9
20260903172104 75 77 2.0 6.0 0.00 0.00 0.00 58 1024.0
20260903171604 75 77 2.0 6.0 0.00 0.00 0.00 57 1024.1
20260903171104 75 77 2.0 6.0 0.00 0.00 0.00 54 1024.1
20260903170604 76 77 2.0 6.0 0.00 0.00 0.00 54 1024.2
20260903170104 76 77 2.0 6.0 0.00 0.00 0.00 53 1024.2
20260903165604 76 77 2.0 6.0 0.00 0.00 0.00 53 1024.1
20260903164604 75 77 2.0 6.0 0.00 0.00 0.00 56 1024.1
20260903164104 75 77 2.0 6.0 0.00 0.00 0.00 57 1024.1
20260903163104 75 77 2.0 6.0 0.00 0.00 0.00 57 1024.1
20260903162104 74 77 2.0 6.0 0.00 0.00 0.00 62 1024.1
20260903161603 73 77 2.0 6.0 0.00 0.00 0.00 62 1024.1
20260903161103 72 77 2.0 6.0 0.00 0.00 0.00 65 1024.2
20260903160604 71 77 2.0 6.0 0.00 0.00 0.00 65 1024.2
20260903160103 71 77 2.0 6.0 0.00 0.00 0.00 66 1024.2
20260903155604 70 77 2.0 6.0 0.00 0.00 0.00 67 1024.2
20260903155104 70 77 2.0 6.0 0.00 0.00 0.00 68 1024.2
20260903154604 69 77 2.0 6.0 0.00 0.00 0.00 68 1024.2
20260903154104 69 77 2.0 6.0 0.00 0.00 0.00 69 1024.2
20260903153604 69 77 2.0 6.0 0.00 0.00 0.00 69 1024.2
20260903153104 68 77 2.0 6.0 0.00 0.00 0.00 71 1024.1
20260903152604 68 77 2.0 6.0 0.00 0.00 0.00 71 1024.1
20260903152104 67 77 2.0 6.0 0.00 0.00 0.00 71 1024.1
20260903151604 67 77 2.0 6.0 0.00 0.00 0.00 73 1024.1
20260903151105 66 77 2.0 6.0 0.00 0.00 0.00 73 1024.1
20260903150603 66 77 2.0 6.0 0.00 0.00 0.00 74 1024.1
20260903150104 65 77 2.0 6.0 0.00 0.00 0.00 75 1024.2
20260903145603 65 77 2.0 6.0 0.00 0.00 0.00 76 1024.3
20260903144604 65 77 2.0 6.0 0.00 0.00 0.00 77 1024.3
20260903144104 64 77 2.0 6.0 0.00 0.00 0.00 77 1024.3
20260903143603 64 77 2.0 6.0 0.00 0.00 0.00 78 1024.3
20260903143104 64 77 2.0 6.0 0.00 0.00 0.00 78 1024.4
20260903142604 64 77 2.0 6.0 0.00 0.00 0.00 78 1024.4
20260903142104 64 77 2.0 6.0 0.00 0.00 0.00 79 1024.4
20260903141604 64 77 2.0 6.0 0.00 0.00 0.00 79 1024.4
20260903140603 63 77 2.0 6.0 0.00 0.00 0.00 79 1024.4
20260903140104 63 77 2.0 6.0 0.00 0.00 0.00 79 1024.3
20260903135604 63 77 2.0 6.0 0.00 0.00 0.00 80 1024.3
20260903135103 63 77 2.0 6.0 0.00 0.00 0.00 80 1024.3
20260903134104 62 77 2.0 6.0 0.00 0.00 0.00 81 1024.3
20260903133604 62 77 2.0 6.0 0.00 0.00 0.00 81 1024.3
20260903133104 61 77 2.0 6.0 0.00 0.00 0.00 82 1024.3
20260903132604 61 77 2.0 6.0 0.00 0.00 0.00 82 1024.3
20260903132104 61 77 2.0 6.0 0.00 0.00 0.00 83 1024.3
20260903131604 61 77 2.0 6.0 0.00 0.00 0.00 82 1024.2
20260903131103 61 77 2.0 6.0 0.00 0.00 0.00 82 1024.2
20260903130603 61 77 2.0 6.0 0.00 0.00 0.00 82 1024.2
20260903130103 61 77 2.0 6.0 0.00 0.00 0.00 82 1024.2
20260903125603 62 77 2.0 6.0 0.00 0.00 0.00 82 1024.2
20260903125103 62 77 2.0 6.0 0.00 0.00 0.00 82 1024.1
20260903124604 62 77 2.0 6.0 0.00 0.00 0.00 82 1024.1
20260903124104 62 77 2.0 6.0 0.00 0.00 0.00 82 1024.0
20260903123604 62 77 2.0 6.0 0.00 0.00 0.00 81 1023.9
20260903123104 62 77 2.0 6.0 0.00 0.00 0.00 82 1023.9
20260903122603 62 77 2.0 6.0 0.00 0.00 0.00 82 1023.9
20260903122104 62 77 2.0 6.0 0.00 0.00 0.00 83 1023.8
20260903121604 62 77 2.0 6.0 0.00 0.00 0.00 83 1023.8
20260903121104 62 77 2.0 6.0 0.00 0.00 0.00 83 1023.8
20260903120604 62 77 2.0 6.0 0.00 0.00 0.00 83 1023.8
20260903120103 62 77 2.0 6.0 0.00 0.00 0.00 83 1023.8
20260903115604 62 77 2.0 6.0 0.00 0.00 0.00 83 1023.8
20260903115104 62 77 2.0 6.0 0.00 0.00 0.00 82 1023.7
20260903114604 62 77 2.0 6.0 0.00 0.00 0.00 81 1023.7
20260903114104 62 77 2.0 6.0 0.00 0.00 0.00 82 1023.7
20260903112604 62 77 2.0 6.0 0.00 0.00 0.00 82 1023.7
20260903112104 62 77 2.0 6.0 0.00 0.00 0.00 82 1023.7
20260903111604 62 77 2.0 6.0 0.00 0.00 0.00 81 1023.7
20260903111104 63 77 2.0 6.0 0.00 0.00 0.00 80 1023.7
20260903110604 63 77 2.0 6.0 0.00 0.00 0.00 80 1023.6
20260903110104 63 77 2.0 6.0 0.00 0.00 0.00 79 1023.6
20260903105604 63 77 2.0 6.0 0.00 0.00 0.00 78 1023.6
20260903105103 63 77 2.0 6.0 0.00 0.00 0.00 79 1023.6
20260903104604 62 77 2.0 6.0 0.00 0.00 0.00 79 1023.6
20260903104104 62 77 2.0 6.0 0.00 0.00 0.00 80 1023.7
20260903103104 62 77 2.0 6.0 0.00 0.00 0.00 80 1023.7
20260903102604 62 77 2.0 6.0 0.00 0.00 0.00 80 1023.7
20260903102104 62 77 2.0 6.0 0.00 0.00 0.00 80 1023.7
20260903101603 62 77 2.0 6.0 0.00 0.00 0.00 80 1023.7
20260903100603 62 77 2.0 6.0 0.00 0.00 0.00 80 1023.7
20260903100104 62 77 2.0 6.0 0.00 0.00 0.00 80 1023.8
20260903095603 62 77 2.0 6.0 0.00 0.00 0.00 80 1023.7
20260903094604 62 77 2.0 6.0 0.00 0.00 0.00 80 1023.8
20260903094104 62 77 2.0 6.0 0.00 0.00 0.00 80 1023.8
20260903093603 63 77 2.0 6.0 0.00 0.00 0.00 80 1023.8
20260903092604 63 77 2.0 6.0 0.00 0.00 0.00 80 1023.8
20260903092104 63 77 2.0 6.0 0.00 0.00 0.00 80 1023.9
20260903091604 63 77 2.0 6.0 0.00 0.00 0.00 80 1023.8
20260903091104 63 77 2.0 6.0 0.00 0.00 0.00 80 1023.8
20260903090604 63 77 2.0 6.0 0.00 0.00 0.00 80 1023.8
20260903090103 63 77 2.0 6.0 0.00 0.00 0.00 80 1023.8
20260903085604 63 77 2.0 6.0 0.00 0.00 0.00 80 1023.8
20260903085103 63 77 2.0 6.0 0.00 0.00 0.00 80 1023.8
20260903084104 63 77 2.0 6.0 0.00 0.00 0.00 80 1023.8
20260903083603 63 77 2.0 6.0 0.00 0.00 0.00 80 1023.9
20260903082604 63 77 2.0 6.0 0.00 0.00 0.00 80 1024.0
20260903082104 63 77 2.0 6.0 0.00 0.00 0.00 80 1024.1
20260903081604 63 77 2.0 6.0 0.00 0.00 0.00 80 1024.2
20260903080603 63 77 2.0 6.0 0.00 0.00 0.00 81 1024.2
20260903080104 63 77 2.0 6.0 0.00 0.00 0.00 81 1024.2
20260903075104 63 77 2.0 6.0 0.00 0.00 0.00 81 1024.2
20260903074604 63 77 2.0 6.0 0.00 0.00 0.00 81 1024.2
20260903073603 63 77 2.0 6.0 0.00 0.00 0.00 81 1024.2
20260903073104 63 77 2.0 6.0 0.00 0.00 0.00 81 1024.3
20260903072604 63 77 2.0 6.0 0.00 0.00 0.00 81 1024.4
20260903072104 63 77 2.0 6.0 0.00 0.00 0.00 81 1024.4
20260903071604 63 77 2.0 6.0 0.00 0.00 0.00 81 1024.4
20260903071104 63 77 2.0 6.0 0.00 0.00 0.00 81 1024.4
20260903070104 63 77 2.0 6.0 0.00 0.00 0.00 82 1024.5
20260903065604 63 77 2.0 6.0 0.00 0.00 0.00 82 1024.5
20260903064603 62 77 2.0 6.0 0.00 0.00 0.00 83 1024.6
20260903064103 62 77 2.0 6.0 0.00 0.00 0.00 83 1024.7
20260903063604 62 77 2.0 6.0 0.00 0.00 0.00 83 1024.7
20260903063104 61 77 2.0 6.0 0.00 0.00 0.00 85 1024.7
20260903062604 61 77 2.0 6.0 0.00 0.00 0.00 85 1024.7
20260903061604 62 77 2.0 6.0 0.00 0.00 0.00 84 1024.7
20260903061104 63 77 2.0 6.0 0.00 0.00 0.00 82 1024.6
20260903060604 63 77 2.0 6.0 0.00 0.00 0.00 81 1024.6
20260903060104 63 77 2.0 6.0 0.00 0.00 0.00 81 1024.5
20260903055604 63 77 2.0 6.0 0.00 0.00 0.00 81 1024.5
20260903055103 63 77 2.0 6.0 0.00 0.00 0.00 81 1024.5
20260903054603 63 77 2.0 6.0 0.00 0.00 0.00 81 1024.5
20260903054103 63 77 2.0 6.0 0.00 0.00 0.00 81 1024.5
20260903053604 63 77 2.0 6.0 0.00 0.00 0.00 82 1024.4
20260903053104 63 77 2.0 6.0 0.00 0.00 0.00 82 1024.4
20260903052604 63 77 2.0 6.0 0.00 0.00 0.00 82 1024.5
20260903052103 63 77 2.0 6.0 0.00 0.00 0.00 81 1024.5
20260903051603 64 77 2.0 6.0 0.00 0.00 0.00 80 1024.5
20260903051103 64 77 2.0 6.0 0.00 0.00 0.00 80 1024.5
20260903050603 64 77 2.0 6.0 0.00 0.00 0.00 80 1024.6
20260903045604 64 77 2.0 6.0 0.00 0.00 0.00 80 1024.6
20260903045104 64 77 2.0 6.0 0.00 0.00 0.00 80 1024.7
20260903044604 64 77 2.0 6.0 0.00 0.00 0.00 80 1024.6
20260903044104 64 77 2.0 6.0 0.00 0.00 0.00 80 1024.6
20260903043604 64 77 2.0 6.0 0.00 0.00 0.00 80 1024.6
20260903043104 64 77 2.0 6.0 0.00 0.00 0.00 80 1024.5
20260903042104 64 77 2.0 6.0 0.00 0.00 0.00 80 1024.5
20260903041604 64 77 2.0 6.0 0.00 0.00 0.00 80 1024.5
20260903041104 64 77 2.0 6.0 0.00 0.00 0.00 80 1024.5
20260903040603 64 77 2.0 6.0 0.00 0.01 0.00 80 1024.5
20260903040104 64 77 2.0 6.0 0.00 0.01 0.00 80 1024.5
20260903035104 64 77 2.0 6.0 0.00 0.00 0.00 80 1024.4
20260903034604 64 77 2.0 6.0 0.00 0.00 0.00 80 1024.4
20260903033604 64 77 2.0 6.0 0.00 0.00 0.00 80 1024.3
20260903033103 64 77 2.0 6.0 0.00 0.00 0.00 80 1024.3
20260903032603 64 77 2.0 6.0 0.00 0.00 0.00 80 1024.2
20260903032104 64 77 2.0 6.0 0.00 0.00 0.00 80 1024.1
20260903031604 64 77 2.0 6.0 0.00 0.00 0.00 80 1024.1
20260903031104 64 77 2.0 6.0 0.00 0.00 0.00 80 1024.1
20260903030104 65 77 2.0 6.0 0.00 0.00 0.00 80 1024.0
20260903025604 65 77 2.0 6.0 0.00 0.00 0.00 80 1023.9
20260903025104 65 77 2.0 6.0 0.00 0.00 0.00 80 1023.9
20260903024604 65 77 2.0 6.0 0.00 0.00 0.00 80 1023.9
20260903023604 65 77 2.0 6.0 0.00 0.00 0.00 80 1023.8
20260903023103 65 77 2.0 6.0 0.00 0.00 0.00 80 1023.8
20260903022604 65 77 2.0 6.0 0.00 0.00 0.00 81 1023.8
20260903022104 65 77 2.0 6.0 0.00 0.00 0.00 81 1023.8
20260903021103 65 77 2.0 6.0 0.00 0.00 0.00 81 1023.7
20260903020104 65 77 2.0 6.0 0.00 0.00 0.00 81 1023.6
20260903015103 65 77 2.0 6.0 0.00 0.00 0.00 81 1023.5
20260903014104 65 77 2.0 6.0 0.00 0.00 0.00 81 1023.4
20260903012604 65 77 2.0 6.0 0.00 0.00 0.00 82 1023.3
20260903012104 65 77 2.0 6.0 0.00 0.00 0.00 82 1023.2
20260903011104 65 77 2.0 6.0 0.00 0.00 0.00 82 1023.2
20260903010603 66 77 2.0 6.0 0.00 0.00 0.00 81 1023.2
20260903005603 66 77 2.0 6.0 0.00 0.00 0.00 80 1023.1
20260903005103 66 77 2.0 6.0 0.00 0.00 0.00 80 1023.0
20260903004104 66 77 2.0 6.0 0.00 0.00 0.00 79 1022.9
20260903003603 67 77 2.0 6.0 0.00 0.00 0.00 79 1022.8
20260903003103 67 77 2.0 6.0 0.00 0.00 0.00 78 1022.8
20260903001604 67 77 2.0 6.0 0.00 0.00 0.00 76 1023.0
20260903001104 67 77 2.0 6.0 0.00 0.00 0.00 77 1023.0
20260903000604 67 77 2.0 6.0 0.00 0.00 0.00 77 1023.1
20260903000104 67 77 2.0 6.0 0.00 0.00 0.00 77 1023.2
20260902235104 67 77 2.0 6.0 0.00 0.00 0.00 76 1023.3
20260902234603 67 77 2.0 6.0 0.00 0.00 0.00 76 1023.3
20260902234104 67 77 2.0 6.0 0.00 0.00 0.00 77 1023.3
20260902233603 67 77 2.0 6.0 0.00 0.00 0.00 77 1023.4
20260902233103 68 77 2.0 6.0 0.00 0.00 0.00 77 1023.5
20260902232604 68 77 2.0 6.0 0.00 0.00 0.00 76 1023.5
20260902232104 68 77 2.0 6.0 0.00 0.00 0.00 76 1023.5
20260902231604 68 77 2.0 6.0 0.00 0.00 0.00 77 1023.5
20260902231103 68 77 2.0 6.0 0.00 0.00 0.00 78 1023.5
20260902230603 68 77 2.0 6.0 0.00 0.00 0.00 78 1023.5
20260902230104 68 77 2.0 6.0 0.00 0.00 0.00 77 1023.5
20260902225604 68 77 2.0 6.0 0.00 0.00 0.00 77 1023.5
20260902225104 68 77 2.0 6.0 0.00 0.00 0.00 76 1023.5
20260902224604 68 77 2.0 6.0 0.00 0.00 0.00 74 1023.5
20260902224104 69 77 2.0 6.0 0.00 0.00 0.00 74 1023.5
20260902223604 69 77 2.0 6.0 0.00 0.00 0.00 74 1023.5
20260902222603 69 77 2.0 6.0 0.00 0.00 0.00 74 1023.5
20260902222104 69 77 2.0 6.0 0.00 0.00 0.00 74 1023.5
20260902221604 69 77 2.0 6.0 0.00 0.00 0.00 74 1023.5
20260902221103 69 77 2.0 6.0 0.00 0.00 0.00 74 1023.5
20260902220604 69 77 2.0 6.0 0.00 0.00 0.00 75 1023.6
20260902215604 70 77 2.0 6.0 0.00 0.00 0.00 76 1023.6
20260902215104 70 77 2.0 6.0 0.00 0.00 0.00 76 1023.6
20260902214104 70 77 2.0 6.0 0.00 0.00 0.00 68 1023.5
20260902213606 70 77 2.0 6.0 0.00 0.00 0.00 73 1023.3